KC2ASA Weather Reports


Display with metric or nautical units.
time (UTC)temp
F
wind
direction
speed
MPH
gust
MPH
rain 1hr
in
rain 24hr
in
rain mn
in
humidity
%
barometer
mb
20260506013033 74 217 2.0 5.0 0.00 0.00 0.00 45 1008.6
20260506011548 75 218 3.0 13.0 0.00 0.00 0.00 44 1008.5
20260506010029 75 215 1.0 6.0 0.00 0.00 0.00 42 1008.3
20260506004539 75 228 0.0 3.0 0.00 0.00 0.00 41 1008.1
20260506003030 76 231 1.0 5.0 0.00 0.00 0.00 39 1008.1
20260506001530 75 222 1.0 4.0 0.00 0.00 0.00 39 1007.9
20260506000026 76 313 0.0 4.0 0.00 0.00 0.00 39 1007.8
20260505234529 77 229 2.0 9.0 0.00 0.00 0.00 36 1007.6
20260505233031 77 219 1.0 8.0 0.00 0.00 0.00 36 1007.6
20260505231529 78 224 1.0 7.0 0.00 0.00 0.00 35 1007.3
20260505230024 78 232 2.0 10.0 0.00 0.00 0.00 34 1007.3
20260505224521 79 211 1.0 6.0 0.00 0.00 0.00 34 1007.1
20260505223021 79 222 1.0 7.0 0.00 0.00 0.00 32 1007.0
20260505221519 80 256 4.0 11.0 0.00 0.00 0.00 31 1006.8
20260505220040 80 224 6.0 15.0 0.00 0.00 0.00 31 1006.6
20260505214525 81 219 1.0 5.0 0.00 0.00 0.00 35 1006.8
20260505213020 80 210 2.0 6.0 0.00 0.00 0.00 34 1006.7
20260505211514 81 228 5.0 14.0 0.00 0.00 0.00 33 1006.3
20260505210013 81 238 4.0 14.0 0.00 0.00 0.00 34 1006.4
20260505204511 82 225 2.0 11.0 0.00 0.00 0.00 34 1006.2
20260505203012 82 222 3.0 9.0 0.00 0.00 0.00 33 1006.5
20260505201510 82 243 4.0 14.0 0.00 0.00 0.00 33 1006.7
20260505200009 82 225 4.0 12.0 0.00 0.00 0.00 34 1006.6
20260505194516 82 229 7.0 12.0 0.00 0.00 0.00 33 1006.6
20260505193006 82 201 5.0 11.0 0.00 0.00 0.00 34 1007.0
20260505191505 82 238 5.0 13.0 0.00 0.00 0.00 34 1007.2
20260505190005 82 228 3.0 11.0 0.00 0.00 0.00 37 1007.2
20260505184501 82 224 5.0 12.0 0.00 0.00 0.00 35 1007.4
20260505183104 82 248 4.0 14.0 0.00 0.00 0.00 37 1007.7
20260505181607 82 198 4.0 13.0 0.00 0.00 0.00 38 1008.0
20260505180056 81 200 3.0 10.0 0.00 0.00 0.00 40 1008.0
20260505174554 80 253 5.0 13.0 0.00 0.00 0.00 41 1008.1
20260505173052 80 231 5.0 12.0 0.00 0.00 0.00 41 1008.1
20260505171551 80 204 5.0 12.0 0.00 0.00 0.00 42 1008.3
20260505170048 80 212 2.0 9.0 0.00 0.00 0.00 41 1008.4
20260505164556 80 211 3.0 10.0 0.00 0.00 0.00 42 1008.6
20260505163044 80 236 1.0 6.0 0.00 0.00 0.00 44 1008.8
20260505161550 80 232 3.0 8.0 0.00 0.00 0.00 44 1009.1
20260505153033 78 208 5.0 10.0 0.00 0.00 0.00 43 1009.7
20260505151530 78 222 1.0 9.0 0.00 0.00 0.00 47 1009.7
20260505124612 63 228 0.0 1.0 0.00 0.00 0.00 79 1010.4
20260505123059 60 125 0.0 1.0 0.00 0.00 0.00 88 1010.4
20260505121550 56 225 0.0 1.0 0.00 0.00 0.00 94 1010.7
20260505120059 52 224 0.0 0.0 0.00 0.00 0.00 95 1010.8
20260505114543 50 216 0.0 0.0 0.00 0.00 0.00 94 1010.6
20260505113045 0 0.0 0.0 0.00 0.00 0.00 1010.2
20260505111535 0 0.0 0.0 0.00 0.00 0.00 1010.3
20260505101518 0 0.0 0.0 0.00 0.00 0.00 1010.4
20260505100016 0 0.0 0.0 0.00 0.00 0.00 1010.2
20260505094511 0 0.0 0.0 0.00 0.00 0.00 1010.2
20260505093004 0 0.0 0.0 0.00 0.00 0.00 1009.9
20260505091600 0 0.0 0.0 0.00 0.00 0.00 1009.6
20260505090056 0 0.0 0.0 0.00 0.00 0.00 1009.6
20260505084554 0 0.0 0.0 0.00 0.00 0.00 1009.6
20260505083052 0 0.0 0.0 0.00 0.00 0.00 1009.6
20260505081549 0 0.0 0.0 0.00 0.00 0.00 1009.7
20260505080040 0 0.0 0.0 0.00 0.00 0.00 1009.7
20260505074535 0 0.0 0.0 0.00 0.00 0.00 1009.7
20260505073033 0 0.0 0.0 0.00 0.00 0.00 1009.8
20260505071529 0 0.0 0.0 0.00 0.00 0.00 1009.7
20260505070028 0 0.0 0.0 0.00 0.00 0.00 1009.7
20260505064519 0 0.0 0.0 0.00 0.00 0.00 1009.6
20260505063013 0 0.0 0.0 0.00 0.00 0.00 1009.8
20260505061512 0 0.0 0.0 0.00 0.00 0.00 1009.9
20260505060005 0 0.0 0.0 0.00 0.00 0.00 1010.0
20260505054602 0 0.0 0.0 0.00 0.00 0.00 1010.1
20260505053114 50 207 0.0 0.0 0.00 0.00 0.00 81 1010.1
20260505051553 51 207 0.0 0.0 0.00 0.00 0.00 80 1010.2
20260505041546 52 204 0.0 1.0 0.00 0.00 0.00 77 1010.3
20260505040044 53 225 0.0 1.0 0.00 0.00 0.00 76 1010.4
20260505034554 53 226 0.0 1.0 0.00 0.00 0.00 76 1010.4
20260505033050 53 225 0.0 1.0 0.00 0.00 0.00 75 1010.4
20260505031542 53 225 0.0 1.0 0.00 0.00 0.00 75 1010.5
20260505030039 54 225 0.0 1.0 0.00 0.00 0.00 74 1010.5
20260505024538 54 225 0.0 2.0 0.00 0.00 0.00 72 1010.5
20260505023043 55 226 0.0 1.0 0.00 0.00 0.00 71 1010.4
20260505021537 55 226 0.0 1.0 0.00 0.00 0.00 70 1010.6
20260505020036 56 226 0.0 2.0 0.00 0.00 0.00 68 1010.6
20260505014535 56 228 0.0 1.0 0.00 0.00 0.00 67 1010.4